M._banatov — UABI — position and weather

sailwx.info

Track history (hours):
 
Tides and Currents Weather Stations Pressure Air Temp Water Temp Dewpoint Dewpoint Depression Visibility Wind Speed Wind Dir Waves Ship Positions

M._banatov

Last reported at 2016-Jun-05 08:33 UTC. Time now 2016-Jun-28 09:47 UTC.
Position N 53°10' E 049°59'.
Warning: this ship's position is 23 days out of date.

Length 132 m; draft 2.8 m.

Type: Ship. MMSI: 273272100.

Date/timePositionNaut miles runAvg speedWind from/ knotsBaromVisibWave heightAir tempDewpointWater temp
2016-Jun-05 08:33N 53°10' E 049°59'0 0.0
2016-Jun-05 07:33N 53°10' E 049°59'0 0.0
2016-Jun-04 12:33N 53°10' E 049°59'0 0.0
2016-Jun-04 11:33N 53°10' E 049°59'0 0.0
2016-Jun-04 10:33N 53°10' E 049°59'0 0.0
2016-Jun-04 09:33N 53°10' E 049°59'0 0.0
2016-Jun-04 08:33N 53°10' E 049°59'0 0.0
2016-Jun-04 07:33N 53°10' E 049°59'0 0.0
2016-Jun-04 06:33N 53°10' E 049°59'0 0.0
2016-Jun-04 05:33N 53°10' E 049°59'0 0.0
2016-Jun-04 04:33N 53°10' E 049°59'0 0.0
2016-Jun-04 03:33N 53°10' E 049°59'0 0.0
2016-Jun-04 02:33N 53°10' E 049°59'0 0.0
2016-Jun-04 01:33N 53°10' E 049°59'0 0.0
2016-Jun-04 00:33N 53°10' E 049°59'2 1.5
2016-Jun-03 23:30N 53°10' E 049°56'6 6.2
2016-Jun-03 22:33N 53°13' E 049°48'  
2016-May-27 23:33N 47°03' E 038°44'6 6.4
2016-May-27 22:33N 47°00' E 038°36'7 6.7
2016-May-27 21:33N 47°00' E 038°26'7 6.9
2016-May-27 20:33N 47°00' E 038°16'7 7.0
2016-May-27 19:33N 46°58' E 038°06'7 7.2
2016-May-27 18:33N 46°55' E 037°57'99 7.1
2016-May-27 04:33N 45°29' E 036°47'7 6.6
2016-May-27 03:34N 45°24' E 036°41'7 6.9
2016-May-27 02:33N 45°19' E 036°33'6 6.2
2016-May-27 01:31N 45°14' E 036°28'7 6.8
2016-May-27 00:32N 45°08' E 036°33'5 0.4
2016-May-26 11:20N 45°12' E 036°28'5 5.9
2016-May-26 10:34N 45°17' E 036°28'5 5.2
2016-May-26 09:33N 45°19' E 036°35'5 5.1
2016-May-26 08:33N 45°23' E 036°40'  
Track history (hours):
 
Tides and Currents Weather Stations Pressure Air Temp Water Temp Dewpoint Dewpoint Depression Visibility Wind Speed Wind Dir Waves Ship Positions

M._banatov

Last reported at 2016-Jun-05 08:33 UTC. Time now 2016-Jun-28 09:47 UTC.
Position N 53°10' E 049°59'.
Warning: this ship's position is 23 days out of date.

Length 132 m; draft 2.8 m.

Type: Ship. MMSI: 273272100.

Date/timePositionNaut miles runAvg speedWind from/ knotsBaromVisibWave heightAir tempDewpointWater temp
2016-Jun-05 08:33N 53°10' E 049°59'0 0.0
2016-Jun-05 07:33N 53°10' E 049°59'0 0.0
2016-Jun-04 12:33N 53°10' E 049°59'0 0.0
2016-Jun-04 11:33N 53°10' E 049°59'0 0.0
2016-Jun-04 10:33N 53°10' E 049°59'0 0.0
2016-Jun-04 09:33N 53°10' E 049°59'0 0.0
2016-Jun-04 08:33N 53°10' E 049°59'0 0.0
2016-Jun-04 07:33N 53°10' E 049°59'0 0.0
2016-Jun-04 06:33N 53°10' E 049°59'0 0.0
2016-Jun-04 05:33N 53°10' E 049°59'0 0.0
2016-Jun-04 04:33N 53°10' E 049°59'0 0.0
2016-Jun-04 03:33N 53°10' E 049°59'0 0.0
2016-Jun-04 02:33N 53°10' E 049°59'0 0.0
2016-Jun-04 01:33N 53°10' E 049°59'0 0.0
2016-Jun-04 00:33N 53°10' E 049°59'2 1.5
2016-Jun-03 23:30N 53°10' E 049°56'6 6.2
2016-Jun-03 22:33N 53°13' E 049°48'  
2016-May-27 23:33N 47°03' E 038°44'6 6.4
2016-May-27 22:33N 47°00' E 038°36'7 6.7
2016-May-27 21:33N 47°00' E 038°26'7 6.9
2016-May-27 20:33N 47°00' E 038°16'7 7.0
2016-May-27 19:33N 46°58' E 038°06'7 7.2
2016-May-27 18:33N 46°55' E 037°57'99 7.1
2016-May-27 04:33N 45°29' E 036°47'7 6.6
2016-May-27 03:34N 45°24' E 036°41'7 6.9
2016-May-27 02:33N 45°19' E 036°33'6 6.2
2016-May-27 01:31N 45°14' E 036°28'7 6.8
2016-May-27 00:32N 45°08' E 036°33'5 0.4
2016-May-26 11:20N 45°12' E 036°28'5 5.9
2016-May-26 10:34N 45°17' E 036°28'5 5.2
2016-May-26 09:33N 45°19' E 036°35'5 5.1
2016-May-26 08:33N 45°23' E 036°40'  

Dump ship's entire track history